Location: Le Rocchette
(44.3500°N, 7.8333°E)
Time: 13:51:36
(UTC+00:00)

Cosmos 2173 Rocket - Pass Details

Date: 17 November 2019
Orbit: 944 x 1001 km, 83.0° (Epoch: 12 December)

Event Time Altitude Azimuth Distance (km) Brightness Sun altitude
Rises 05:13:05 0° 207° (SSW) 3,682 6.9 -13.2°
Reaches altitude 10° 05:15:45 10° 214° (SSW) 2,730 6.2 -12.7°
Maximum altitude 05:21:39 43° 285° (WNW) 1,337 4.3 -11.7°
Drops below altitude 10° 05:27:32 10° 356° (N) 2,709 6.1 -10.7°
Sets 05:30:11 0° 3° (N) 3,651 6.9 -10.2°
